sat.trackr.live / text

‹ back to catalog

USA 157 (MILSTAR-2 2)

NORAD 26715 · 2001-009A

PAYLOAD ACTIVE UNKNOWN

§ Identity

Operator
Country
US
Launch date
2001-02-27
Launch site
AFETR
Launch vehicle
Mass (kg)
RCS (m²)

Purposes: comms

External: N2YO · Heavens-Above · Gunter

§ Orbital elements

Epoch: 2026-05-24T18:28:33.909024Z

Period
1,436.01 min
Inclination
11.5184°
Eccentricity
0.0038130
Mean motion
1.00277917 rev/d
Perigee alt
35,624.1 km
Apogee alt
35,945.6 km
Semi-major
42,163.0 km
B*
0.0000e+0
RAAN
19.9158°
Arg perigee
178.9244°
Mean anomaly
170.6857°
Rev number
3,270

§ Raw data

USA 157 (MILSTAR-2 2)1 26715U 01009A   26144.76983691  .00000102  00000+0  00000+0 0  99982 26715  11.5184  19.9158 0038130 178.9244 170.6857  1.00277917 32706

JSON: /api/v1/satellites/26715 · /tle

For live sub-satellite position, see the globe view (requires WebGL).

§ Visibility from observer

Set your observer location to see the next 7 days of passes ≥ 10°. The values pass through the URL so the page stays shareable.

No JS? Fill the form by hand. The geolocation button needs JavaScript.